CDT,Max TemperatureF,Mean TemperatureF,Min TemperatureF,Max Dew PointF,MeanDew PointF,Min DewpointF,Max Humidity, Mean Humidity, Min Humidity, Max Sea Level PressureIn, Mean Sea Level PressureIn, Min Sea Level PressureIn, Max VisibilityMiles, Mean VisibilityMiles, Min VisibilityMiles, Max Wind SpeedMPH, Mean Wind SpeedMPH, Max Gust SpeedMPH,PrecipitationIn, CloudCover, Events, WindDirDegrees
2013-5-1,82,69,56,57,55,51,86,62,37,30.10,30.05,29.96,10,10,10,20,8,24,0.00,0,,165
2013-5-2,75,61,47,58,53,46,93,74,54,30.15,30.11,30.07,10,9,5,20,9,24,0.10,4,Rain,320
2013-5-3,58,52,46,57,50,45,100,97,93,30.08,29.90,29.78,10,4,1,16,7,21,2.18,8,Rain-Thunderstorm,356
2013-5-4,57,51,45,54,48,44,100,93,86,30.04,29.93,29.84,10,9,2,14,5,17,0.53,8,Rain,182
2013-5-5,66,58,49,57,53,48,100,87,73,30.02,29.98,29.91,10,7,1,14,7,17,0.30,8,Rain,26
2013-5-6,72,62,51,58,54,50,96,77,57,30.00,29.97,29.94,10,10,10,20,6,25,T,7,,31
2013-5-7,79,68,57,57,53,45,93,62,30,30.04,30.00,29.97,10,10,10,12,3,15,0.00,2,,8
2013-5-8,81,66,51,59,52,45,100,64,28,30.04,30.00,29.97,10,10,10,15,3,18,0.00,1,,228
2013-5-9,68,64,60,64,61,58,97,88,78,29.99,29.91,29.82,10,8,2,18,7,22,0.89,7,Rain-Thunderstorm,156
2013-5-10,63,57,51,59,54,48,100,90,80,30.00,29.92,29.83,10,9,2,17,8,22,T,7,,316
2013-5-11,64,53,42,53,43,30,93,65,36,30.14,30.02,29.96,10,10,10,29,12,39,0.00,3,,299
2013-5-12,60,48,36,37,31,27,82,56,30,30.23,30.18,30.14,10,10,10,23,9,37,0.00,0,,299
2013-5-13,70,54,37,42,36,31,93,58,23,30.22,30.14,30.04,10,10,10,17,6,21,0.00,0,,217
2013-5-14,89,73,56,60,53,41,72,52,31,30.01,29.84,29.74,10,10,10,20,13,28,0.00,0,,206
2013-5-15,89,78,67,63,57,51,73,55,36,29.88,29.83,29.79,10,10,10,25,11,32,0.00,0,,252
2013-5-16,83,73,63,64,60,56,93,69,45,29.94,29.89,29.83,10,10,10,21,6,24,T,1,Rain,201
2013-5-17,80,70,59,65,61,57,93,75,57,29.98,29.95,29.92,10,10,7,17,7,20,T,5,Rain,142
2013-5-18,81,71,61,64,63,61,100,77,54,30.02,29.97,29.91,10,8,2,14,6,16,0.00,3,,133
2013-5-19,88,77,66,72,68,63,93,74,55,29.92,29.84,29.71,10,9,5,26,13,36,0.01,2,,157
2013-5-20,85,74,63,70,63,58,93,67,40,29.87,29.80,29.73,10,9,1,22,15,32,0.93,6,Rain-Thunderstorm,212
2013-5-21,81,72,63,67,64,61,100,79,58,29.79,29.73,29.67,10,9,3,22,12,28,T,3,Rain-Thunderstorm,195
2013-5-22,74,68,61,64,60,54,100,77,53,29.83,29.72,29.65,10,9,2,23,11,29,0.14,7,Rain,237
2013-5-23,63,55,46,59,53,46,93,80,67,30.27,30.03,29.83,10,9,2,23,10,29,0.02,6,Rain,334
2013-5-24,70,55,40,46,41,36,93,63,33,30.43,30.35,30.28,10,10,10,14,6,24,0.00,0,,61
2013-5-25,58,53,48,51,47,39,100,80,59,30.41,30.31,30.23,10,9,4,18,9,24,0.46,7,Rain-Thunderstorm,94
2013-5-26,68,60,52,62,55,49,100,88,76,30.25,30.16,30.02,10,9,2,21,12,28,1.41,7,Rain-Thunderstorm,119
2013-5-27,76,68,60,68,63,60,100,87,74,30.05,29.94,29.73,10,6,0,33,8,45,1.67,6,Fog-Rain-Thunderstorm,47
2013-5-28,81,72,63,70,66,62,93,81,69,29.94,29.83,29.77,10,10,9,31,13,46,0.07,3,Rain-Thunderstorm,197
2013-5-29,85,74,63,69,65,60,93,74,55,29.96,29.91,29.84,10,10,5,24,13,33,0.10,3,Rain-Thunderstorm,181
2013-5-30,84,74,64,73,66,63,93,78,62,29.90,29.86,29.78,10,7,1,40,17,54,1.15,4,Rain-Thunderstorm,175
2013-5-31,77,70,63,72,66,62,100,88,76,29.92,29.82,29.71,10,8,2,29,12,36,0.94,6,Rain-Thunderstorm,179